Preview of NWS' New Version of Forecast
This preview is not operational and should not be used for support decisions.

Regional Weather Roundup (RWR)

Issued by Gray - Portland, ME (GYX)

                            
000
ASUS41 KGYX 200010
RWRGYX
WEATHER ROUNDUP FOR MAINE AND NEW HAMPSHIRE
NATIONAL WEATHER SERVICE GRAY ME
800 PM EDT TUE JUN 19 2018

MEZ002-005-006-010-012-015-018-020-021-024-026-027-029-200100-
MAINE
  
CITY           SKY/WX    TMP DP  RH WIND       PRES   REMARKS
PORTLAND       FAIR      72  48  42 NW12      29.81R                  
6HR MIN TEMP:  72; 6HR MAX TEMP:  78;                                

SANFORD        FAIR      73  46  38 NW8       29.82R                  
BAR HARBOR     FAIR      69  47  45 W5        29.75R                  
WISCASSET      FAIR      71  48  43 VRB6      29.79R                  
6HR MIN TEMP:  71; 6HR MAX TEMP:  78;                                

ROCKLAND       FAIR      71  49  45 NW5       29.77R                  
FRYEBURG       FAIR      68  52  56 W6        29.83R                  
6HR MIN TEMP:  68; 6HR MAX TEMP:  79;                                

LEWISTONAUBURN FAIR      71  48  43 NW5       29.82R                  
AUGUSTA        FAIR      71  46  40 NW7       29.80R                  
6HR MIN TEMP:  71; 6HR MAX TEMP:  77;                                

WATERVILLE     FAIR      69  47  45 N6        29.77R                  
BANGOR         FAIR      70  44  39 NW12G23   29.76R                  
6HR MIN TEMP:  70; 6HR MAX TEMP:  76;                                

GREENVILLE       N/A     63  42  46 NW17G25   29.77R                  
6HR MIN TEMP:  63; 6HR MAX TEMP:  67;                                

MILLINOCKET    FAIR      71  43  36 N6        29.75R                  
6HR MIN TEMP:  71; 6HR MAX TEMP:  75;                                

HOULTON        FAIR      65  44  46 NW6G16    29.71R                  
6HR MIN TEMP:  65; 6HR MAX TEMP:  72;                                

PRESQUE ISLE   FAIR      65  44  46 NW8       29.73R                  
6HR MIN TEMP:  65; 6HR MAX TEMP:  68;                                

FRENCHVILLE    FAIR      65  44  46 NW8       29.72R                  
6HR MIN TEMP:  63; 6HR MAX TEMP:  68;                                

CARIBOU        FAIR      65  44  46 NW7       29.71R                  
6HR MIN TEMP:  63; 6HR MAX TEMP:  68;                                

$$

NHZ002-005-008-009-011-012-014-200100-
NEW HAMPSHIRE
  
CITY           SKY/WX    TMP DP  RH WIND       PRES   REMARKS
PORTSMOUTH     PTCLDY    74  45  35 NW8       29.80R                  
ROCHESTER      FAIR      73  48  41 VRB5      29.81R                  
6HR MIN TEMP:  72; 6HR MAX TEMP:  78;                                

NASHUA         FAIR      75  49  39 CALM      29.84R                  
MANCHESTER     FAIR      77  47  34 NW13      29.81R                  
6HR MIN TEMP:  77; 6HR MAX TEMP:  82;                                

CONCORD        FAIR      72  47  40 N10       29.84R                  
6HR MIN TEMP:  72; 6HR MAX TEMP:  79;                                

LACONIA        FAIR      70  47  43 NW8       29.85R                  
PLYMOUTH       FAIR      69  48  46 NW8       29.85R                  
BERLIN         FAIR      67  47  48 NW7       29.87R                  
6HR MIN TEMP:  67; 6HR MAX TEMP:  72;                                

WHITEFIELD     FAIR      67  50  54 NW6       29.88R                  
6HR MIN TEMP:  67; 6HR MAX TEMP:  73;                                

JAFFREY        FAIR      72  46  39 VRB3      29.87R                  
6HR MIN TEMP:  72; 6HR MAX TEMP:  78;                                

KEENE          FAIR      74  48  39 W5        29.86R                  
LEBANON        FAIR      72  46  39 N8        29.87R                  
6HR MIN TEMP:  72; 6HR MAX TEMP:  77;                                

MT WASHINGTON  FOG       41  41 100 NW43G48     N/A  VSB 1/8          
6HR MIN TEMP:  40; 6HR MAX TEMP:  43;                                

$$

VTZ005-007-008-200100-
VERMONT
  
CITY           SKY/WX    TMP DP  RH WIND       PRES   REMARKS
ST JOHNSBURY     N/A     68  50  52 MISG      29.86R                  
MONTPELIER     FAIR      65  51  60 NW8       29.93R                  
BURLINGTON     FAIR      72  47  40 NW7       29.89R                  
$$

MAZ007-012-024-CTZ003-RIZ002-NYZ038-NYZ072-200100-
SOUTHERN NEW ENGLAND AND NY
  
CITY           SKY/WX    TMP DP  RH WIND       PRES   REMARKS
BOSTON         FAIR      78  44  29 N9        29.80R                  
WORCESTER      FAIR      70  51  51 W6        29.86R                  
NANTUCKET      FAIR      63  59  87 SW7       29.81R                  
PROVIDENCE     FAIR      78  51  38 NW9       29.81R                  
HARTFORD       FAIR      75  51  43 N7        29.83R                  
ALBANY         FAIR      75  54  47 W8        29.86R                  
NEW YORK CITY  FAIR      84  53  34 E9        29.80R                  
$$

ANZ081-ANZ082-ANZ150-NHZ014-MEZ023>029-200100-
COASTAL MARINE OBSERVATIONS
  
STATION/POSITION TIME  TEMP    WIND        PRES    WAVE
                       AIR SEA DIR/SP/G            HT/PER
                 (UTC) (F)     (DEG/KT/KT) (MB)    (FT/S)
MOUNT DESERT ROC 0000   65     300/ 14/ 15 1007.6R
MATINICUS ROCK   0000   65     300/  5/  6 1007.9R
ISLE OF SHOALS   0000   74     310/ 14/ 15 1008.6R
JEFFREYS LEDGE   2336      60                N/A     2/ 7
$$

.............KEY..............
   WCI - WIND CHILL
   TC  - TEMPERATURE IN CELSIUS
   VSB - VISIBILITY IN MILES
   HX  - HEAT INDEX
   FAIR- INDICATES FEW OR NO CLOUDS BELOW 12,000 FT, WITH NO 
         SIGNIFICANT WEATHER AND/OR OBSTRUCTIONS TO VISIBILITY.